Wind_Speed
5 4 4 4 4 5 6 7 7 8 9 8 8 10 10 10 10 10 10 11 11 11 11 10 10 10 9 8 8 7 7 6 6 6 5 5 5 6 6 7 6 6 6
4 4 3 4 5 5 5 6 6 8 9 9 9 10 10 10 10 10 10 11 11 10 10 10 10 9 9 8 7 7 6 6 5 5 4 5 6 6 6 6 6 6 6
4 4 3 4 5 6 6 7 9 10 10 10 10 9 10 10 10 10 11 10 10 9 9 9 8 8 8 7 7 6 6 5 5 4 4 5 6 6 6 6 6 6 6
6 5 4 4 5 6 7 8 10 10 10 10 9 9 9 9 10 10 10 10 10 9 8 8 7 8 7 6 6 6 5 5 5 4 4 5 5 6 6 6 6 6 5
6 6 5 5 5 7 8 8 10 9 9 9 9 9 9 9 9 10 9 9 9 8 7 7 7 7 7 6 6 5 5 5 5 4 4 5 6 6 6 6 6 5 5
8 8 7 6 7 8 8 8 9 8 9 8 8 9 9 8 9 8 8 8 8 8 7 7 7 7 7 7 6 6 6 5 5 5 5 5 5 5 5 5 5 4 4
9 9 9 8 7 8 8 9 9 8 8 8 8 8 8 8 8 7 7 7 8 7 7 7 7 7 7 6 6 6 6 5 5 5 5 5 5 6 5 5 4 4 4
10 10 10 9 9 9 8 8 8 8 7 7 8 8 7 7 6 7 7 6 7 7 7 7 7 7 6 7 6 6 6 5 5 5 5 5 5 5 5 4 4 3 3
11 11 10 10 9 9 9 8 8 8 7 6 7 7 7 7 6 6 6 6 7 7 7 7 7 6 7 7 6 5 5 5 5 5 5 5 5 5 4 4 4 3 3
12 11 10 9 9 9 9 8 8 7 7 6 6 7 7 6 6 6 6 6 6 7 7 7 7 6 6 6 6 5 4 4 5 5 5 5 4 4 4 4 4 3 3
13 12 11 9 9 9 8 8 8 7 7 6 6 6 7 6 6 6 6 6 7 7 6 6 6 6 6 6 6 5 5 4 4 4 5 4 4 4 3 3 4 4 4
13 12 11 10 10 9 8 8 8 7 7 6 6 6 7 7 7 6 6 5 6 7 6 6 5 5 6 5 6 6 5 4 4 5 4 4 4 3 3 3 4 4 4
14 13 11 11 10 9 8 8 8 7 7 6 6 6 6 6 6 6 6 6 6 5 5 5 4 5 5 5 6 6 5 5 5 5 4 4 3 3 3 3 3 4 4
14 13 12 11 10 9 9 8 8 7 7 6 5 6 5 6 6 6 6 6 5 5 4 4 5 5 5 5 5 5 5 5 5 5 4 4 3 3 3 3 3 4 4
14 13 12 11 10 10 10 9 8 8 7 6 5 5 5 5 5 5 5 5 5 4 4 4 4 4 4 5 5 6 6 5 5 5 5 4 4 4 4 4 4 5 5
15 14 13 12 11 10 10 10 9 8 7 6 5 5 5 5 5 5 5 4 4 3 3 3 4 4 4 5 6 6 6 6 6 6 5 5 5 5 5 5 6 6 6
15 14 13 12 11 10 9 8 8 7 6 5 5 5 4 4 4 4 4 3 3 3 3 4 4 4 4 5 6 6 6 6 7 6 6 6 6 6 6 7 7 7 7
14 13 12 12 12 11 9 8 7 7 6 5 4 4 4 3 3 3 3 3 3 4 4 5 5 4 5 5 5 5 6 7 7 7 7 7 7 7 7 7 8 8 9
13 12 11 11 11 11 10 9 7 7 5 5 5 3 3 2 2 2 3 3 3 4 4 5 5 5 5 6 6 5 6 7 8 7 8 8 8 8 8 9 9 9 10
13 11 10 10 10 10 9 8 8 7 7 6 5 3 3 2 1 2 2 2 3 4 5 5 6 6 7 7 7 7 7 8 8 8 8 9 9 9 9 10 10 11 11
12 11 10 10 10 9 9 8 8 8 7 6 5 4 3 1 1 2 3 3 4 4 5 6 7 7 8 8 8 8 8 9 9 9 9 10 10 11 11 11 11 11 12
10 10 10 8 9 8 7 7 7 7 7 7 6 5 4 2 1 1 2 3 4 5 6 6 7 7 7 8 9 9 9 10 10 10 10 10 11 10 10 11 11 12 12
9 8 8 7 7 7 6 6 6 6 6 6 5 4 4 3 3 3 3 4 5 6 6 6 7 8 8 9 10 10 10 10 11 11 11 11 11 11 11 11 11 12 12
8 7 6 6 5 5 5 5 5 4 4 4 4 4 4 3 3 3 4 4 4 6 6 6 6 7 8 9 10 10 11 11 11 11 12 12 12 12 12 12 13 13 13
7 7 6 5 5 4 5 4 3 3 3 3 3 3 3 3 3 3 4 5 5 5 5 6 7 7 8 8 8 9 11 12 12 12 13 13 13 13 13 13 14 14 14
7 7 6 6 6 5 4 5 4 4 4 4 4 3 3 3 4 4 4 5 5 5 5 6 7 7 7 8 8 9 10 12 12 12 13 13 14 14 14 14 14 14 15
Wind_Direction
45 51 64 84 110 126 132 134 134 130 129 131 139 140 137 135 135 139 140 149 148 148 150 153 149 146 143 137 139 141 140 138 138 133 130 136 140 137 138 139 137 135 135
45 47 71 110 119 130 132 129 132 139 139 137 135 134 137 138 143 144 141 144 144 144 145 151 152 149 145 142 142 146 148 148 148 143 140 140 136 135 138 133 133 136 133
53 51 75 113 127 131 121 117 120 135 138 136 133 136 138 140 142 144 142 141 144 147 147 148 151 152 146 145 149 150 152 152 152 149 148 145 138 134 132 134 136 137 136
55 62 80 101 119 121 111 115 121 128 133 132 130 134 140 141 141 141 139 140 145 147 146 150 155 156 154 151 154 155 154 156 158 153 149 148 145 139 133 132 136 139 143
61 73 85 98 110 112 110 113 119 126 133 133 130 133 138 140 138 139 140 145 149 147 146 148 154 158 161 162 164 165 161 162 158 158 156 150 148 144 140 135 135 137 141
67 80 90 99 108 113 113 116 117 125 130 131 128 132 135 138 139 139 143 148 150 150 149 151 152 158 163 165 164 161 157 161 156 155 155 151 153 148 142 138 135 134 144
71 80 90 95 103 106 108 113 116 119 124 130 129 131 134 137 144 145 145 147 148 150 150 156 157 162 167 165 163 164 162 158 160 160 155 151 150 147 144 144 142 146 150
71 79 89 97 101 103 108 114 118 118 120 127 132 132 134 140 143 143 152 150 155 157 159 157 157 162 167 170 167 166 165 167 166 163 158 155 155 151 154 155 155 159 161
69 76 84 94 100 102 106 111 116 117 117 125 132 136 138 141 146 142 152 157 165 165 164 162 162 167 165 165 162 160 164 172 173 169 164 159 162 161 163 168 171 170 176
66 71 79 89 96 101 104 106 111 114 116 122 133 138 142 145 150 151 157 163 168 166 165 169 171 170 165 163 161 163 170 176 176 170 171 166 167 170 173 176 181 186 192
63 69 75 81 89 97 105 109 111 113 114 119 130 139 148 155 158 161 159 165 168 168 167 168 166 169 169 170 171 175 181 178 174 171 172 173 174 178 188 195 201 210 207
61 67 72 75 82 90 98 103 108 116 117 118 125 135 146 151 156 162 155 152 160 165 169 170 175 177 177 178 177 182 187 188 184 182 179 179 181 186 199 205 208 209 212
60 65 69 73 77 82 89 97 101 110 116 116 123 136 139 142 145 149 147 144 151 157 170 175 179 180 181 181 178 185 194 194 192 193 192 192 195 197 204 211 212 207 211
57 60 66 70 73 78 83 91 98 102 111 117 120 130 140 146 147 148 149 148 151 155 163 168 172 176 186 189 186 190 198 204 204 204 204 204 211 214 219 225 223 224 232
54 57 62 69 72 77 81 86 91 93 104 110 110 120 133 143 152 161 161 159 160 158 168 173 176 193 200 200 199 200 211 218 213 210 205 209 219 231 235 241 243 242 244
52 55 60 65 68 73 78 82 83 83 88 98 108 118 131 142 153 165 163 163 170 171 183 195 201 205 208 211 212 214 217 219 218 214 214 218 228 238 244 247 255 256 255
49 53 58 63 69 73 77 80 80 79 81 87 101 119 127 140 152 166 171 185 195 197 202 205 208 213 216 218 221 226 227 229 226 226 226 225 235 244 249 255 260 260 260
47 51 57 61 66 69 72 75 79 77 72 79 96 116 132 143 152 171 189 203 216 218 219 222 219 224 229 229 230 233 234 234 234 238 240 240 246 251 253 258 262 263 263
44 51 56 60 62 65 64 67 71 70 70 77 91 103 122 146 155 178 206 215 221 223 228 232 232 236 239 237 241 245 242 238 240 245 249 250 253 255 257 259 264 265 267
35 46 53 56 57 63 63 63 65 70 73 82 87 95 117 136 172 192 214 225 230 230 233 238 238 246 248 245 247 248 248 246 249 253 254 256 259 258 261 263 264 266 268
28 33 43 48 52 55 58 58 57 62 67 73 73 80 81 126 205 216 233 246 250 251 245 246 250 249 250 247 251 252 250 250 251 256 256 259 266 266 266 269 272 275 276
19 24 32 37 46 49 52 53 53 56 61 64 64 55 45 36 350 274 244 256 262 259 253 253 257 249 250 249 252 254 255 254 254 257 259 264 269 269 269 274 277 279 279
7 13 22 27 35 38 43 46 51 51 52 56 56 46 35 31 19 350 318 291 283 265 257 257 257 251 256 256 255 254 256 258 257 260 263 265 266 268 272 275 277 279 280
351 357 5 11 20 24 27 30 39 42 41 39 40 36 26 17 357 332 320 316 299 273 263 266 257 256 261 260 257 257 260 260 260 262 263 264 266 268 270 272 275 279 281
336 340 347 348 356 0 7 12 16 18 15 10 13 11 1 351 340 322 317 318 309 289 275 271 262 263 264 262 262 264 264 264 263 266 265 267 268 270 273 273 275 278 280
313 318 321 324 329 336 343 350 349 342 338 334 334 336 332 336 333 327 319 313 305 294 282 276 271 271 269 268 267 269 270 270 267 265 264 267 270 272 274 274 277 279 281
Height
5854 5853 5852 5852 5851 5851 5852 5853 5853 5855 5856 5858 5860 5861 5862 5864 5865 5867 5868 5870 5871 5873 5875 5877 5878 5880 5881 5882 5883 5885 5886 5887 5887 5888 5889 5890 5890 5891 5891 5892 5893 5893 5894
5854 5853 5853 5852 5852 5852 5853 5853 5854 5855 5857 5859 5860 5862 5864 5865 5867 5868 5869 5871 5873 5874 5876 5878 5879 5881 5882 5883 5884 5885 5886 5887 5888 5889 5890 5890 5891 5891 5892 5893 5894 5894 5895
5855 5854 5853 5853 5853 5853 5853 5854 5854 5855 5858 5860 5862 5863 5865 5866 5868 5869 5871 5872 5874 5875 5877 5879 5880 5882 5883 5884 5885 5886 5887 5888 5889 5890 5890 5891 5892 5892 5893 5894 5894 5895 5896
5855 5854 5854 5854 5854 5854 5855 5855 5856 5857 5859 5861 5863 5864 5866 5867 5869 5870 5872 5873 5875 5876 5878 5879 5881 5882 5884 5885 5886 5887 5888 5889 5889 5890 5891 5892 5893 5893 5894 5894 5895 5896 5897
5856 5855 5855 5854 5854 5855 5856 5857 5858 5859 5861 5863 5864 5865 5867 5868 5870 5871 5873 5874 5876 5877 5878 5880 5881 5883 5884 5885 5886 5887 5888 5889 5890 5891 5892 5892 5893 5894 5895 5895 5896 5897 5897
5857 5856 5856 5856 5856 5856 5858 5859 5859 5861 5862 5864 5865 5867 5868 5869 5871 5872 5874 5875 5876 5878 5879 5881 5882 5883 5884 5886 5887 5888 5889 5889 5890 5891 5892 5893 5894 5895 5895 5896 5897 5897 5898
5859 5858 5857 5858 5858 5858 5859 5860 5861 5862 5863 5865 5866 5867 5869 5870 5872 5873 5875 5876 5877 5878 5880 5881 5882 5884 5885 5886 5887 5888 5889 5890 5891 5892 5893 5893 5894 5895 5896 5897 5897 5898 5898
5861 5860 5860 5860 5860 5860 5861 5862 5863 5864 5865 5866 5867 5868 5870 5871 5873 5874 5875 5876 5877 5879 5880 5882 5883 5884 5885 5886 5887 5889 5889 5890 5891 5892 5893 5894 5895 5895 5896 5897 5897 5898 5899
5862 5862 5861 5861 5861 5862 5862 5863 5864 5865 5866 5867 5868 5869 5871 5872 5874 5875 5876 5877 5878 5879 5881 5882 5883 5885 5886 5887 5888 5889 5890 5891 5892 5892 5893 5894 5895 5896 5896 5897 5898 5898 5899
5865 5864 5863 5863 5863 5863 5864 5865 5865 5866 5867 5868 5869 5870 5871 5873 5874 5875 5877 5878 5879 5880 5881 5883 5884 5885 5886 5887 5888 5889 5890 5891 5892 5893 5893 5894 5895 5896 5897 5897 5898 5899 5899
5867 5866 5865 5865 5865 5865 5866 5866 5867 5867 5868 5869 5870 5870 5872 5873 5874 5876 5877 5878 5879 5880 5882 5883 5884 5885 5886 5887 5888 5890 5891 5891 5892 5893 5893 5894 5895 5896 5897 5897 5898 5898 5899
5869 5868 5867 5867 5867 5867 5867 5867 5868 5868 5869 5870 5870 5871 5872 5873 5874 5876 5877 5878 5879 5880 5882 5883 5885 5886 5887 5888 5889 5890 5891 5892 5892 5893 5894 5895 5895 5896 5897 5897 5898 5898 5899
5871 5870 5870 5869 5869 5869 5869 5869 5869 5870 5871 5871 5872 5872 5873 5874 5875 5877 5878 5879 5879 5881 5882 5884 5885 5886 5887 5888 5889 5890 5891 5892 5893 5893 5894 5895 5896 5896 5897 5898 5898 5898 5899
5874 5873 5872 5871 5871 5871 5870 5870 5871 5871 5872 5873 5873 5874 5875 5876 5877 5878 5879 5880 5881 5882 5883 5884 5885 5886 5887 5888 5889 5890 5891 5892 5893 5893 5894 5895 5896 5896 5897 5897 5898 5898 5899
5877 5875 5874 5873 5873 5872 5872 5872 5872 5873 5873 5874 5874 5875 5876 5877 5878 5879 5880 5881 5881 5882 5883 5884 5885 5886 5887 5888 5889 5890 5891 5891 5892 5893 5894 5894 5895 5896 5896 5897 5897 5898 5898
5880 5878 5877 5875 5875 5874 5874 5874 5874 5874 5875 5875 5875 5876 5877 5878 5878 5879 5880 5881 5882 5883 5883 5884 5885 5886 5887 5888 5889 5890 5890 5891 5892 5892 5893 5894 5894 5895 5895 5896 5896 5897 5897
5882 5880 5879 5878 5877 5876 5876 5875 5876 5876 5876 5876 5876 5877 5878 5878 5879 5880 5880 5881 5882 5883 5883 5884 5885 5886 5887 5887 5888 5889 5889 5890 5891 5892 5892 5893 5894 5894 5895 5895 5895 5896 5896
5884 5882 5881 5880 5879 5878 5878 5877 5877 5877 5877 5877 5877 5877 5878 5879 5879 5880 5880 5881 5882 5882 5883 5884 5884 5885 5886 5886 5887 5888 5888 5889 5890 5891 5891 5892 5893 5893 5893 5894 5894 5894 5894
5886 5885 5883 5882 5881 5880 5880 5879 5878 5877 5877 5877 5877 5878 5878 5879 5879 5880 5880 5881 5881 5882 5882 5883 5883 5884 5885 5885 5886 5887 5887 5888 5889 5889 5890 5891 5891 5891 5892 5892 5892 5892 5892
5889 5887 5885 5884 5883 5882 5881 5880 5880 5879 5878 5878 5878 5879 5879 5879 5879 5880 5880 5880 5881 5881 5882 5882 5882 5883 5883 5884 5885 5886 5886 5887 5888 5888 5889 5889 5889 5890 5890 5890 5890 5889 5889
5891 5889 5887 5886 5885 5884 5883 5882 5881 5880 5880 5880 5880 5879 5879 5879 5879 5879 5880 5880 5880 5880 5880 5881 5881 5882 5882 5883 5883 5884 5885 5885 5886 5886 5887 5887 5887 5887 5888 5887 5887 5887 5887
5892 5891 5889 5887 5886 5885 5884 5883 5882 5881 5881 5881 5881 5880 5880 5879 5879 5879 5879 5879 5879 5879 5879 5879 5880 5880 5880 5881 5882 5882 5883 5884 5884 5884 5884 5885 5885 5885 5885 5885 5885 5885 5884
5893 5891 5890 5889 5887 5886 5885 5884 5883 5883 5882 5882 5882 5881 5880 5880 5879 5879 5878 5878 5878 5878 5878 5878 5878 5878 5879 5879 5880 5880 5881 5881 5881 5882 5882 5882 5882 5882 5882 5882 5882 5882 5881
5893 5892 5891 5890 5888 5887 5886 5885 5884 5883 5883 5883 5882 5881 5881 5880 5879 5879 5878 5877 5876 5876 5876 5876 5876 5877 5877 5877 5877 5878 5879 5879 5879 5879 5879 5879 5879 5879 5879 5879 5879 5879 5878
5892 5892 5891 5890 5889 5887 5886 5885 5885 5884 5883 5883 5882 5881 5881 5880 5879 5878 5878 5877 5876 5875 5875 5875 5875 5875 5875 5875 5875 5875 5876 5876 5876 5876 5876 5877 5877 5877 5877 5876 5876 5876 5875
5891 5891 5890 5889 5888 5887 5886 5885 5884 5883 5883 5882 5882 5881 5880 5879 5879 5878 5877 5876 5875 5874 5874 5873 5873 5873 5873 5873 5873 5873 5873 5873 5873 5873 5873 5873 5873 5874 5873 5873 5873 5872 5871